Main page
METAR-TAF:

METAR-TAF

Airports :

Yazd, Iran

Shahid Sadooghi Airport

latitude: 31-54N, longitude: 054-24E, elevation: 1238 m

Current weather observation

The report was made 18 minutes ago, at 16:00 UTC
Wind 4 kt from the South/Southwest
Temperature 10°C
Humidity 27%
Pressure 1024 hPa
Visibility 10 km or more
no clouds below 1500 m and no cumulonimbus

METAR: OIYY 181600Z 21004KT CAVOK 10/M08 Q1024

Time: 19:48 (16:18 UTC)


TAF: missing

Weather observations and forecasts of more than 4000 airports (METAR and TAF reports).

The available stations are represented by yellow and red dots on the map.

Hover mouse over dot to see the name of the station.

Then click to see weather observations and forecasts.

To change the map : click on the green buttons with a black cross to zoom in, on the green button with a dash to zoom out, or on the green arrows for adjacent maps.


METAR-TAF: